Tracking 19484 objects as of 20-Jan-2019
HD Live streaming from Space Station
objects crossing your sky now

FLOCK 3M 3

Track FLOCK 3M 3 now!
10-day predictions
FLOCK 3M 3 is classified as:


NORAD ID: 42996
Int'l Code: 2017-068K
Perigee: 501.4 km
Apogee: 525.5 km
Inclination: 97.4 °
Period: 94.7 minutes
Semi major axis: 6884 km
RCS: Unknown
Launch date: October 31, 2017
Source: United States (US)
Launch site: AIR FORCE WESTERN TEST RANGE (AFWTR)
aabbcc
Your satellite tracking list
Your tracking list is empty




NASA's NSSDC Master Catalog

Two Line Element Set (TLE):
1 42996U 17068K   19020.27472103  .00001418  00000-0  69090-4 0  9992
2 42996  97.3616 132.3934 0017495 108.3144 303.7104 15.19832694 67601
Source of the keplerian elements: AFSPC